{"data":{"norad_id":64051,"intl_designator":"2025-103D","name":"TIANYI D","alt_names":[],"object_type":"PAYLOAD","status":"ACTIVE","operator":null,"country":"PRC","launch_date":"2025-05-17","launch_site_code":"JSC","launch_vehicle":null,"mission":null,"orbit_class":"UNKNOWN","rcs_meters":null,"size_class":null,"mass_kg":null,"dimensions":null,"purposes":[],"wikipedia_slug":null,"has_3d_model":false,"image_url":null,"decayed_at":null,"tle_current":{"epoch":"2026-05-25T04:29:52.368288Z","epoch_age_seconds":69562,"freshness":"FRESH","line1":"1 64051U 25103D   26145.18741167  .00003321  00000+0  16564-3 0  9993","line2":"2 64051  97.3830 216.9619 0000623 289.7014  70.4153 15.18210013 56513","mean_motion":15.18210013,"eccentricity":6.23e-5,"inclination_deg":97.383,"raan_deg":216.9619,"arg_perigee_deg":289.7014,"mean_anomaly_deg":70.4153,"bstar":0.00016564,"rev_number":5651,"period_min":94.848537927539,"perigee_km":510.82120120486,"apogee_km":511.67961887615,"semimajor_km":6889.3874100405,"source":"CELESTRAK","updated_at":"2026-05-25T13:38:04.196692Z"}}}